RYR924 EINN-EPMO

Flight info

Callsign RYR924
Flight time 2h 35m
Altitude 35000
Route PELIG DCT LIFFY UL975 WAL M16 DOLAS L603 LAMSO DCT HLZ DCT ADLIR L980 SUBIX DCT OBOKU DCT DOSIX
Aircraft B738/M-SDE2E3FGHIRWXY/LB1

Departure

Time 2026-04-10 08:57
Airport Shannon Airport (EINN)

Arrival

Time 2026-04-10 11:33
Airport Warsaw Modlin Airport (EPMO)
Time Latitude Longitude Altitude Speed Heading
2026-04-10 08:25 52.69373 -8.92055 23 ft 0 kts 185°
2026-04-10 08:46 52.69380 -8.92054 21 ft 4 kts 185°
2026-04-10 08:46 52.69407 -8.92050 21 ft 4 kts 185°
2026-04-10 08:46 52.69433 -8.92046 22 ft 4 kts 184°
2026-04-10 08:46 52.69460 -8.92046 21 ft 4 kts 163°
2026-04-10 08:47 52.69474 -8.92064 21 ft 2 kts 104°
2026-04-10 08:47 52.69478 -8.92088 22 ft 0 kts 104°
2026-04-10 08:49 52.69477 -8.92082 23 ft 1 kts 104°
2026-04-10 08:49 52.69473 -8.92052 21 ft 4 kts 104°
2026-04-10 08:50 52.69464 -8.91998 21 ft 6 kts 104°
2026-04-10 08:50 52.69451 -8.91916 23 ft 8 kts 104°
2026-04-10 08:50 52.69436 -8.91829 22 ft 8 kts 111°
2026-04-10 08:50 52.69400 -8.91765 21 ft 8 kts 154°
2026-04-10 08:51 52.69350 -8.91737 21 ft 7 kts 162°
2026-04-10 08:51 52.69311 -8.91688 23 ft 7 kts 135°
2026-04-10 08:51 52.69277 -8.91628 21 ft 7 kts 129°
2026-04-10 08:51 52.69256 -8.91559 21 ft 7 kts 95°
2026-04-10 08:52 52.69288 -8.91509 21 ft 7 kts 18°
2026-04-10 08:52 52.69339 -8.91482 22 ft 10 kts 18°
2026-04-10 08:52 52.69422 -8.91436 23 ft 15 kts 18°
2026-04-10 08:52 52.69522 -8.91381 23 ft 15 kts 18°
2026-04-10 08:53 52.69620 -8.91326 22 ft 14 kts 19°
2026-04-10 08:53 52.69714 -8.91275 22 ft 14 kts 18°
2026-04-10 08:53 52.69804 -8.91225 23 ft 13 kts 18°
2026-04-10 08:53 52.69888 -8.91178 21 ft 13 kts 19°
2026-04-10 08:54 52.69972 -8.91130 22 ft 12 kts 19°
2026-04-10 08:54 52.70054 -8.91086 23 ft 12 kts 18°
2026-04-10 08:54 52.70133 -8.91043 24 ft 12 kts 18°
2026-04-10 08:54 52.70211 -8.91007 23 ft 12 kts
2026-04-10 08:55 52.70290 -8.91025 22 ft 11 kts 349°
2026-04-10 08:55 52.70371 -8.91050 22 ft 13 kts 348°
2026-04-10 08:55 52.70467 -8.91081 22 ft 14 kts 350°
2026-04-10 08:55 52.70563 -8.91110 22 ft 14 kts 349°
2026-04-10 08:56 52.70653 -8.91139 22 ft 13 kts 349°
2026-04-10 08:56 52.70740 -8.91166 24 ft 9 kts 349°
2026-04-10 08:56 52.70785 -8.91225 25 ft 9 kts 280°
2026-04-10 08:56 52.70752 -8.91316 25 ft 14 kts 232°
2026-04-10 08:57 52.70543 -8.91761 26 ft 87 kts 232°
2026-04-10 08:57 52.70028 -8.92848 38 ft 151 kts 232°
2026-04-10 08:57 52.69358 -8.94352 495 ft 169 kts 228°
2026-04-10 08:57 52.68904 -8.96138 1558 ft 175 kts 263°
2026-04-10 08:58 52.69317 -8.98121 2399 ft 195 kts 286°
2026-04-10 08:58 52.69894 -9.00171 3326 ft 196 kts 284°
2026-04-10 08:58 52.70448 -9.02197 4283 ft 194 kts 285°
2026-04-10 08:58 52.71000 -9.04229 5149 ft 193 kts 285°
2026-04-10 08:59 52.71553 -9.06276 5906 ft 196 kts 287°
2026-04-10 08:59 52.72273 -9.08191 6543 ft 207 kts 313°
2026-04-10 08:59 52.73624 -9.09162 6994 ft 230 kts 353°
2026-04-10 08:59 52.75269 -9.08611 7209 ft 255 kts 20°
2026-04-10 09:00 52.77000 -9.07470 7481 ft 273 kts 20°
2026-04-10 09:00 52.78719 -9.06328 7754 ft 293 kts 20°
2026-04-10 09:00 52.80665 -9.05066 8385 ft 303 kts 19°
2026-04-10 09:00 52.82647 -9.03810 9241 ft 305 kts 18°
2026-04-10 09:01 52.84651 -9.02562 10075 ft 309 kts 18°
2026-04-10 09:01 52.86655 -9.01328 10837 ft 312 kts 17°
2026-04-10 09:01 52.88724 -9.00064 11626 ft 315 kts 17°
2026-04-10 09:01 52.90764 -8.98820 12418 ft 318 kts 16°
2026-04-10 09:02 52.92858 -8.97542 13243 ft 321 kts 15°
2026-04-10 09:02 52.94962 -8.96173 14008 ft 328 kts 24°
2026-04-10 09:02 52.96770 -8.93815 14626 ft 340 kts 45°
2026-04-10 09:02 52.98365 -8.90851 15252 ft 346 kts 47°
2026-04-10 09:03 52.99931 -8.87820 15830 ft 352 kts 47°
2026-04-10 09:03 53.01548 -8.84678 16442 ft 358 kts 47°
2026-04-10 09:03 53.03160 -8.81469 17052 ft 365 kts 54°
2026-04-10 09:04 53.04972 -8.73333 17573 ft 396 kts 82°
2026-04-10 09:04 53.05430 -8.69030 18052 ft 403 kts 83°
2026-04-10 09:04 53.05902 -8.64361 18623 ft 408 kts 83°
2026-04-10 09:04 53.06377 -8.59724 19168 ft 413 kts 83°
2026-04-10 09:05 53.06879 -8.54971 19671 ft 419 kts 82°
2026-04-10 09:05 53.07229 -8.51743 20006 ft 423 kts 82°
2026-04-10 09:05 53.07891 -8.45731 20596 ft 431 kts 82°
2026-04-10 09:05 53.08437 -8.40835 21082 ft 437 kts 82°
2026-04-10 09:06 53.08995 -8.35851 21582 ft 442 kts 82°
2026-04-10 09:06 53.09564 -8.30766 22074 ft 448 kts 82°
2026-04-10 09:06 53.10109 -8.25870 22546 ft 453 kts 82°
2026-04-10 09:06 53.10687 -8.20663 23025 ft 458 kts 82°
2026-04-10 09:07 53.11268 -8.15400 23499 ft 464 kts 82°
2026-04-10 09:07 53.11846 -8.10135 23873 ft 469 kts 82°
2026-04-10 09:07 53.12419 -8.04900 24271 ft 473 kts 82°
2026-04-10 09:07 53.13003 -7.99532 24694 ft 476 kts 82°
2026-04-10 09:08 53.13588 -7.94138 25118 ft 479 kts 82°
2026-04-10 09:08 53.14185 -7.88606 25521 ft 483 kts 82°
2026-04-10 09:08 53.14747 -7.83367 25892 ft 486 kts 82°
2026-04-10 09:08 53.15345 -7.77775 26273 ft 490 kts 81°
2026-04-10 09:09 53.15935 -7.72226 26650 ft 493 kts 81°
2026-04-10 09:09 53.16536 -7.66554 27036 ft 497 kts 81°
2026-04-10 09:09 53.17095 -7.61245 27380 ft 500 kts 81°
2026-04-10 09:09 53.17668 -7.55785 27721 ft 504 kts 81°
2026-04-10 09:10 53.18069 -7.51948 27961 ft 506 kts 81°
2026-04-10 09:10 53.18499 -7.47822 28214 ft 508 kts 81°
2026-04-10 09:10 53.18901 -7.43959 28447 ft 510 kts 81°
2026-04-10 09:10 53.19466 -7.38498 28768 ft 514 kts 81°
2026-04-10 09:11 53.20084 -7.32636 29106 ft 517 kts 79°
2026-04-10 09:11 53.20896 -7.26745 29423 ft 520 kts 75°
2026-04-10 09:11 53.21821 -7.20919 29723 ft 524 kts 74°
2026-04-10 09:11 53.22799 -7.15084 30012 ft 528 kts 73°
2026-04-10 09:12 53.23800 -7.09154 30288 ft 531 kts 73°
2026-04-10 09:12 53.24798 -7.03155 30562 ft 533 kts 73°
2026-04-10 09:12 53.25765 -6.97212 30829 ft 536 kts 74°
2026-04-10 09:12 53.26713 -6.91275 31085 ft 538 kts 74°
2026-04-10 09:13 53.27659 -6.85268 31335 ft 541 kts 74°
2026-04-10 09:13 53.28610 -6.79175 31641 ft 541 kts 74°
2026-04-10 09:13 53.29521 -6.73306 32007 ft 540 kts 73°
2026-04-10 09:13 53.30434 -6.67413 32383 ft 539 kts 73°
2026-04-10 09:14 53.31374 -6.61327 32706 ft 539 kts 73°
2026-04-10 09:14 53.32315 -6.55224 32996 ft 540 kts 73°
2026-04-10 09:14 53.33245 -6.49177 33301 ft 541 kts 73°
2026-04-10 09:14 53.34170 -6.43135 33631 ft 540 kts 72°
2026-04-10 09:15 53.35091 -6.37101 33958 ft 540 kts 72°
2026-04-10 09:15 53.36021 -6.30983 34232 ft 540 kts 72°
2026-04-10 09:15 53.36934 -6.24955 34551 ft 537 kts 72°
2026-04-10 09:15 53.37849 -6.18883 34994 ft 532 kts 72°
2026-04-10 09:16 53.39655 -6.06843 35072 ft 532 kts 72°
2026-04-10 09:16 53.41411 -5.95046 35067 ft 524 kts 72°
2026-04-10 09:17 53.43163 -5.83196 35096 ft 523 kts 72°
2026-04-10 09:17 53.44869 -5.71574 35101 ft 524 kts 73°
2026-04-10 09:18 53.46602 -5.59685 35109 ft 524 kts 73°
2026-04-10 09:18 53.47962 -5.47673 35099 ft 527 kts 85°
2026-04-10 09:19 53.47731 -5.35384 35110 ft 527 kts 94°
2026-04-10 09:19 53.47284 -5.23399 35113 ft 528 kts 93°
2026-04-10 09:20 53.46938 -5.11123 35116 ft 527 kts 93°
2026-04-10 09:20 53.46542 -4.98869 35125 ft 527 kts 93°
2026-04-10 09:21 53.46127 -4.86616 35119 ft 527 kts 93°
2026-04-10 09:21 53.45701 -4.74480 35121 ft 527 kts 93°
2026-04-10 09:22 53.45254 -4.62209 35123 ft 527 kts 93°
2026-04-10 09:22 53.44849 -4.49954 35122 ft 527 kts 92°
2026-04-10 09:23 53.44451 -4.37652 35123 ft 526 kts 92°
2026-04-10 09:23 53.44007 -4.25493 35123 ft 526 kts 93°
2026-04-10 09:24 53.43494 -4.13252 35120 ft 526 kts 93°
2026-04-10 09:24 53.42980 -4.01066 35125 ft 525 kts 93°
2026-04-10 09:25 53.42468 -3.88791 35130 ft 525 kts 93°
2026-04-10 09:25 53.41968 -3.76583 35132 ft 525 kts 93°
2026-04-10 09:26 53.41456 -3.64399 35132 ft 525 kts 93°
2026-04-10 09:26 53.40931 -3.52224 35138 ft 524 kts 93°
2026-04-10 09:27 53.40398 -3.39991 35145 ft 524 kts 93°
2026-04-10 09:27 53.39858 -3.27827 35151 ft 524 kts 93°
2026-04-10 09:28 53.39305 -3.15648 35153 ft 524 kts 93°
2026-04-10 09:28 53.38803 -3.03718 35156 ft 524 kts 92°
2026-04-10 09:29 53.38363 -2.91577 35158 ft 523 kts 92°
2026-04-10 09:29 53.37907 -2.79362 35154 ft 523 kts 92°
2026-04-10 09:30 53.37428 -2.67254 35155 ft 523 kts 92°
2026-04-10 09:30 53.36929 -2.55080 35157 ft 523 kts 92°
2026-04-10 09:31 53.36419 -2.42926 35156 ft 523 kts 92°
2026-04-10 09:31 53.35901 -2.30794 35158 ft 523 kts 92°
2026-04-10 09:32 53.35063 -2.18717 35159 ft 524 kts 98°
2026-04-10 09:32 53.33762 -2.06705 35167 ft 524 kts 100°
2026-04-10 09:33 53.32480 -1.95022 35149 ft 524 kts 99°
2026-04-10 09:33 53.31227 -1.83168 35153 ft 524 kts 99°
2026-04-10 09:34 53.29953 -1.71076 35169 ft 529 kts 99°
2026-04-10 09:34 53.28654 -1.58936 35382 ft 536 kts 99°
2026-04-10 09:35 53.27992 -1.52798 35673 ft 534 kts 99°
2026-04-10 09:35 53.27328 -1.46679 36121 ft 528 kts 99°
2026-04-10 09:35 53.26683 -1.40747 36656 ft 519 kts 100°
2026-04-10 09:35 53.26059 -1.35031 37162 ft 512 kts 101°
2026-04-10 09:36 53.24773 -1.23336 37150 ft 514 kts 101°
2026-04-10 09:36 53.23514 -1.11992 37132 ft 509 kts 101°
2026-04-10 09:37 53.22217 -1.00405 37146 ft 507 kts 101°
2026-04-10 09:37 53.20931 -0.89013 37152 ft 505 kts 101°
2026-04-10 09:38 53.19619 -0.77508 37161 ft 505 kts 101°
2026-04-10 09:38 53.18319 -0.66203 37167 ft 505 kts 101°
2026-04-10 09:39 53.16987 -0.54707 37154 ft 506 kts 101°
2026-04-10 09:39 53.15639 -0.43166 37165 ft 508 kts 101°
2026-04-10 09:40 53.14279 -0.31626 37156 ft 510 kts 101°
2026-04-10 09:40 53.12935 -0.20327 37165 ft 511 kts 101°
2026-04-10 09:41 53.11542 -0.08709 37161 ft 513 kts 101°
2026-04-10 09:41 53.10126 0.02990 37157 ft 513 kts 101°
2026-04-10 09:42 53.08706 0.14631 37147 ft 514 kts 101°
2026-04-10 09:42 53.07274 0.26262 37141 ft 513 kts 101°
2026-04-10 09:43 53.05835 0.37851 37139 ft 512 kts 101°
2026-04-10 09:43 53.04423 0.49132 37141 ft 511 kts 101°
2026-04-10 09:44 53.02967 0.60661 37147 ft 510 kts 101°
2026-04-10 09:44 53.01521 0.72029 37146 ft 509 kts 101°
2026-04-10 09:45 53.00041 0.83563 37152 ft 508 kts 101°
2026-04-10 09:45 52.98571 0.94942 37156 ft 507 kts 101°
2026-04-10 09:46 52.97121 1.06393 37158 ft 507 kts 100°
2026-04-10 09:46 52.95833 1.17600 37163 ft 507 kts 99°
2026-04-10 09:47 52.94524 1.29088 37156 ft 508 kts 99°
2026-04-10 09:47 52.93183 1.40583 37162 ft 508 kts 100°
2026-04-10 09:48 52.91822 1.52046 37154 ft 510 kts 100°
2026-04-10 09:48 52.90437 1.63582 37154 ft 511 kts 100°
2026-04-10 09:49 52.89043 1.75114 37154 ft 511 kts 100°
2026-04-10 09:49 52.87636 1.86654 37159 ft 512 kts 100°
2026-04-10 09:50 52.86213 1.98221 37165 ft 513 kts 100°
2026-04-10 09:50 52.84817 2.09481 37158 ft 513 kts 101°
2026-04-10 09:51 52.83373 2.21029 37159 ft 513 kts 101°
2026-04-10 09:51 52.82008 2.31866 37160 ft 513 kts 101°
2026-04-10 09:52 52.80543 2.43406 37160 ft 513 kts 101°
2026-04-10 09:52 52.79069 2.54903 37165 ft 512 kts 101°
2026-04-10 09:53 52.77579 2.66383 37155 ft 511 kts 101°
2026-04-10 09:53 52.76107 2.77655 37159 ft 511 kts 101°
2026-04-10 09:54 52.74617 2.89163 37159 ft 510 kts 101°
2026-04-10 09:54 52.73255 3.00609 37149 ft 508 kts 94°
2026-04-10 09:55 52.72959 3.12160 37150 ft 505 kts 88°
2026-04-10 09:55 52.72874 3.21838 37138 ft 505 kts 88°
2026-04-10 09:56 52.72746 3.33396 37125 ft 505 kts 89°
2026-04-10 09:56 52.72562 3.44958 37132 ft 505 kts 89°
2026-04-10 09:57 52.72347 3.56438 37136 ft 505 kts 89°
2026-04-10 09:57 52.72115 3.68013 37139 ft 505 kts 89°
2026-04-10 09:58 52.71875 3.79595 37149 ft 505 kts 90°
2026-04-10 09:58 52.71626 3.91142 37152 ft 506 kts 90°
2026-04-10 09:59 52.71364 4.02775 37155 ft 506 kts 90°
2026-04-10 09:59 52.71092 4.14349 37150 ft 506 kts 90°
2026-04-10 10:00 52.70809 4.25887 37146 ft 506 kts 90°
2026-04-10 10:00 52.70515 4.37449 37143 ft 506 kts 90°
2026-04-10 10:01 52.70208 4.49056 37137 ft 506 kts 90°
2026-04-10 10:01 52.69900 4.60301 37214 ft 503 kts 91°
2026-04-10 10:02 52.69567 4.72028 37143 ft 509 kts 90°
2026-04-10 10:02 52.69225 4.83669 37129 ft 507 kts 91°
2026-04-10 10:03 52.68877 4.95103 37130 ft 505 kts 91°
2026-04-10 10:03 52.68516 5.06633 37130 ft 503 kts 91°
2026-04-10 10:04 52.67957 5.23822 37136 ft 501 kts 91°
2026-04-10 10:05 52.67578 5.35072 37140 ft 500 kts 91°
2026-04-10 10:05 52.67179 5.46553 37143 ft 499 kts 91°
2026-04-10 10:06 52.66775 5.57886 37143 ft 498 kts 91°
2026-04-10 10:06 52.66358 5.69296 37140 ft 498 kts 91°
2026-04-10 10:07 52.65931 5.80640 37135 ft 498 kts 91°
2026-04-10 10:07 52.65490 5.92083 37123 ft 499 kts 91°
2026-04-10 10:08 52.65047 6.03288 37116 ft 499 kts 91°
2026-04-10 10:08 52.64586 6.14690 37107 ft 499 kts 91°
2026-04-10 10:09 52.64121 6.25898 37108 ft 499 kts 91°
2026-04-10 10:09 52.63639 6.37275 37100 ft 499 kts 91°
2026-04-10 10:10 52.63144 6.48685 37106 ft 498 kts 91°
2026-04-10 10:10 52.62639 6.60058 37104 ft 498 kts 91°
2026-04-10 10:11 52.62141 6.71058 37107 ft 496 kts 91°
2026-04-10 10:11 52.61620 6.82316 37099 ft 495 kts 92°
2026-04-10 10:12 52.61089 6.93574 37103 ft 493 kts 92°
2026-04-10 10:12 52.60548 7.04801 37103 ft 492 kts 92°
2026-04-10 10:13 52.59999 7.15991 37108 ft 490 kts 92°
2026-04-10 10:13 52.59442 7.27120 37098 ft 489 kts 92°
2026-04-10 10:14 52.58875 7.38236 37108 ft 488 kts 92°
2026-04-10 10:14 52.58298 7.49329 37105 ft 486 kts 92°
2026-04-10 10:15 52.57714 7.60372 37107 ft 485 kts 92°
2026-04-10 10:15 52.57119 7.71423 37105 ft 484 kts 92°
2026-04-10 10:16 52.56516 7.82429 37103 ft 483 kts 92°
2026-04-10 10:16 52.55904 7.93416 37096 ft 483 kts 92°
2026-04-10 10:17 52.55283 8.04367 37108 ft 482 kts 92°
2026-04-10 10:17 52.54651 8.15330 37098 ft 482 kts 92°
2026-04-10 10:18 52.54009 8.26309 37104 ft 481 kts 92°
2026-04-10 10:18 52.53357 8.37256 37093 ft 481 kts 93°
2026-04-10 10:19 52.52715 8.47890 37110 ft 480 kts 93°
2026-04-10 10:19 52.52045 8.58801 37094 ft 480 kts 93°
2026-04-10 10:20 52.51367 8.69684 37109 ft 480 kts 93°
2026-04-10 10:20 52.50680 8.80550 37111 ft 479 kts 93°
2026-04-10 10:21 52.49982 8.91428 37124 ft 478 kts 93°
2026-04-10 10:21 52.49277 9.02270 37126 ft 478 kts 93°
2026-04-10 10:22 52.48558 9.13153 37108 ft 478 kts 93°
2026-04-10 10:22 52.47834 9.23962 37094 ft 477 kts 94°
2026-04-10 10:23 52.47101 9.34763 37109 ft 476 kts 94°
2026-04-10 10:23 52.46361 9.45505 37099 ft 475 kts 94°
2026-04-10 10:24 52.45610 9.56267 37104 ft 474 kts 94°
2026-04-10 10:24 52.44852 9.66989 37093 ft 473 kts 94°
2026-04-10 10:25 52.44088 9.77665 37106 ft 473 kts 94°
2026-04-10 10:25 52.43309 9.88408 37096 ft 472 kts 94°
2026-04-10 10:26 52.42526 9.99061 37105 ft 472 kts 94°
2026-04-10 10:26 52.41732 10.09732 37094 ft 472 kts 94°
2026-04-10 10:27 52.40931 10.20364 37106 ft 471 kts 94°
2026-04-10 10:27 52.40119 10.31018 37092 ft 472 kts 94°
2026-04-10 10:28 52.39300 10.41635 37105 ft 472 kts 94°
2026-04-10 10:28 52.38463 10.52356 37099 ft 473 kts 94°
2026-04-10 10:29 52.37625 10.62961 37106 ft 473 kts 94°
2026-04-10 10:29 52.36770 10.73683 37096 ft 473 kts 94°
2026-04-10 10:30 52.36298 10.84371 37102 ft 468 kts 84°
2026-04-10 10:30 52.36575 10.94986 37091 ft 467 kts 83°
2026-04-10 10:31 52.36890 11.05604 37088 ft 467 kts 83°
2026-04-10 10:31 52.37158 11.16185 37084 ft 466 kts 84°
2026-04-10 10:32 52.37390 11.26781 37090 ft 465 kts 84°
2026-04-10 10:32 52.37606 11.37354 37079 ft 464 kts 84°
2026-04-10 10:33 52.37811 11.47900 37089 ft 463 kts 84°
2026-04-10 10:33 52.38008 11.58385 37081 ft 462 kts 84°
2026-04-10 10:34 52.38196 11.68910 37087 ft 461 kts 85°
2026-04-10 10:34 52.38375 11.79380 37079 ft 460 kts 85°
2026-04-10 10:35 52.38543 11.89795 37090 ft 458 kts 85°
2026-04-10 10:35 52.38703 12.00216 37080 ft 457 kts 85°
2026-04-10 10:36 52.38850 12.10444 37091 ft 456 kts 85°
2026-04-10 10:36 52.38991 12.20869 37082 ft 455 kts 85°
2026-04-10 10:37 52.39122 12.31206 37096 ft 454 kts 85°
2026-04-10 10:37 52.39244 12.41541 37081 ft 454 kts 85°
2026-04-10 10:38 52.39356 12.51880 37090 ft 453 kts 85°
2026-04-10 10:38 52.39459 12.62122 37090 ft 452 kts 85°
2026-04-10 10:39 52.39554 12.72414 37096 ft 451 kts 85°
2026-04-10 10:39 52.39639 12.82741 37092 ft 451 kts 85°
2026-04-10 10:40 52.39716 12.92999 37093 ft 451 kts 85°
2026-04-10 10:40 52.39783 13.03219 37093 ft 451 kts 85°
2026-04-10 10:41 52.39841 13.13466 37104 ft 450 kts 85°
2026-04-10 10:41 52.39891 13.23706 37094 ft 450 kts 85°
2026-04-10 10:42 52.39932 13.33923 37112 ft 449 kts 85°
2026-04-10 10:42 52.39959 13.42463 37106 ft 449 kts 85°
2026-04-10 10:43 52.39985 13.52729 37109 ft 449 kts 85°
2026-04-10 10:43 52.40002 13.62900 37102 ft 449 kts 85°
2026-04-10 10:44 52.40013 13.73130 37107 ft 449 kts 85°
2026-04-10 10:44 52.40019 13.83405 37106 ft 448 kts 85°
2026-04-10 10:45 52.40017 13.93591 37112 ft 448 kts 85°
2026-04-10 10:45 52.40007 14.03790 37108 ft 448 kts 85°
2026-04-10 10:46 52.39829 14.13996 37109 ft 450 kts 89°
2026-04-10 10:46 52.39398 14.24193 37108 ft 450 kts 89°
2026-04-10 10:47 52.38968 14.34392 37110 ft 449 kts 89°
2026-04-10 10:47 52.38562 14.44607 37112 ft 449 kts 88°
2026-04-10 10:48 52.38155 14.54818 37113 ft 449 kts 88°
2026-04-10 10:48 52.37795 14.64984 37112 ft 448 kts 87°
2026-04-10 10:49 52.37564 14.75131 37118 ft 447 kts 86°
2026-04-10 10:49 52.37339 14.85308 37114 ft 447 kts 86°
2026-04-10 10:50 52.37090 14.95459 37119 ft 446 kts 86°
2026-04-10 10:50 52.36824 15.05588 37117 ft 446 kts 86°
2026-04-10 10:51 52.36544 15.15780 37116 ft 446 kts 86°
2026-04-10 10:51 52.36258 15.25880 37118 ft 446 kts 86°
2026-04-10 10:52 52.35963 15.35978 37124 ft 446 kts 86°
2026-04-10 10:52 52.35658 15.46152 37123 ft 445 kts 86°
2026-04-10 10:53 52.35347 15.56250 37129 ft 445 kts 86°
2026-04-10 10:53 52.35028 15.66302 37128 ft 444 kts 86°
2026-04-10 10:54 52.34700 15.76391 37138 ft 444 kts 86°
2026-04-10 10:54 52.34363 15.86463 37137 ft 444 kts 86°
2026-04-10 10:55 52.34016 15.96582 37139 ft 443 kts 86°
2026-04-10 10:55 52.33666 16.06571 37140 ft 443 kts 86°
2026-04-10 10:56 52.33303 16.16655 37143 ft 442 kts 86°
2026-04-10 10:56 52.32933 16.26683 37146 ft 441 kts 86°
2026-04-10 10:57 52.32556 16.36685 37154 ft 441 kts 86°
2026-04-10 10:57 52.32171 16.46693 37154 ft 441 kts 86°
2026-04-10 10:58 52.31778 16.56676 37162 ft 440 kts 86°
2026-04-10 10:58 52.31376 16.66672 37167 ft 440 kts 86°
2026-04-10 10:59 52.30967 16.76621 37162 ft 440 kts 86°
2026-04-10 10:59 52.30552 16.86524 37169 ft 439 kts 86°
2026-04-10 11:00 52.30124 16.96531 37162 ft 439 kts 86°
2026-04-10 11:00 52.29690 17.06475 37154 ft 440 kts 86°
2026-04-10 11:01 52.29247 17.16453 37166 ft 440 kts 86°
2026-04-10 11:01 52.28796 17.26406 37161 ft 440 kts 86°
2026-04-10 11:02 52.28336 17.36390 37172 ft 440 kts 86°
2026-04-10 11:02 52.28103 17.41423 36724 ft 447 kts 86°
2026-04-10 11:02 52.27866 17.46444 36247 ft 445 kts 86°
2026-04-10 11:02 52.27625 17.51456 35666 ft 445 kts 86°
2026-04-10 11:03 52.27381 17.56514 35035 ft 447 kts 86°
2026-04-10 11:03 52.27137 17.61552 34385 ft 449 kts 86°
2026-04-10 11:03 52.26886 17.66685 33622 ft 451 kts 85°
2026-04-10 11:03 52.26632 17.71825 32895 ft 451 kts 85°
2026-04-10 11:04 52.26378 17.76903 32176 ft 451 kts 85°
2026-04-10 11:04 52.26122 17.81969 31464 ft 451 kts 84°
2026-04-10 11:04 52.25862 17.87116 30681 ft 452 kts 84°
2026-04-10 11:04 52.25604 17.92182 29936 ft 450 kts 84°
2026-04-10 11:05 52.25313 18.02150 28794 ft 423 kts 74°
2026-04-10 11:05 52.25667 18.06799 28314 ft 410 kts 71°
2026-04-10 11:05 52.26069 18.11421 27733 ft 405 kts 71°
2026-04-10 11:06 52.26461 18.15912 27216 ft 400 kts 71°
2026-04-10 11:06 52.26848 18.20411 26688 ft 396 kts 71°
2026-04-10 11:06 52.27218 18.24794 26182 ft 391 kts 71°
2026-04-10 11:06 52.27580 18.29167 25687 ft 388 kts 71°
2026-04-10 11:07 52.27937 18.33545 25193 ft 384 kts 71°
2026-04-10 11:07 52.28285 18.37844 24711 ft 381 kts 71°
2026-04-10 11:07 52.28630 18.42134 24222 ft 377 kts 71°
2026-04-10 11:07 52.28965 18.46329 23758 ft 375 kts 71°
2026-04-10 11:08 52.29302 18.50561 23185 ft 372 kts 71°
2026-04-10 11:08 52.29628 18.54699 22678 ft 368 kts 71°
2026-04-10 11:08 52.29954 18.58845 22197 ft 364 kts 71°
2026-04-10 11:08 52.30271 18.62904 21739 ft 360 kts 72°
2026-04-10 11:09 52.30587 18.66958 21263 ft 357 kts 72°
2026-04-10 11:09 52.30900 18.70982 20799 ft 354 kts 72°
2026-04-10 11:09 52.31204 18.74918 20339 ft 351 kts 72°
2026-04-10 11:09 52.31510 18.78883 19887 ft 349 kts 73°
2026-04-10 11:10 52.31809 18.82774 19450 ft 347 kts 73°
2026-04-10 11:10 52.32109 18.86711 18992 ft 345 kts 73°
2026-04-10 11:10 52.32402 18.90563 18551 ft 343 kts 74°
2026-04-10 11:10 52.32696 18.94449 18053 ft 341 kts 75°
2026-04-10 11:11 52.32984 18.98266 17574 ft 339 kts 75°
2026-04-10 11:11 52.33267 19.02057 17140 ft 336 kts 75°
2026-04-10 11:11 52.33551 19.05858 16681 ft 333 kts 76°
2026-04-10 11:11 52.33827 19.09583 16257 ft 331 kts 76°
2026-04-10 11:12 52.34105 19.13325 15811 ft 329 kts 77°
2026-04-10 11:12 52.34376 19.16998 15387 ft 326 kts 77°
2026-04-10 11:12 52.34641 19.20646 15247 ft 315 kts 77°
2026-04-10 11:12 52.34887 19.24170 15061 ft 308 kts 78°
2026-04-10 11:13 52.35075 19.27631 14855 ft 308 kts 80°
2026-04-10 11:13 52.35245 19.31147 14659 ft 307 kts 80°
2026-04-10 11:13 52.35406 19.34573 14454 ft 303 kts 80°
2026-04-10 11:13 52.35567 19.38011 14252 ft 298 kts 81°
2026-04-10 11:14 52.35726 19.41339 14057 ft 295 kts 81°
2026-04-10 11:14 52.35887 19.44690 13850 ft 293 kts 81°
2026-04-10 11:14 52.36046 19.47989 13635 ft 292 kts 81°
2026-04-10 11:14 52.36206 19.51309 13432 ft 291 kts 81°
2026-04-10 11:15 52.36363 19.54564 13236 ft 289 kts 81°
2026-04-10 11:15 52.36520 19.57850 13039 ft 288 kts 81°
2026-04-10 11:15 52.36675 19.61127 12844 ft 286 kts 81°
2026-04-10 11:15 52.37027 19.64279 12599 ft 284 kts 69°
2026-04-10 11:16 52.37665 19.67378 12422 ft 286 kts 68°
2026-04-10 11:16 52.38319 19.70436 12211 ft 287 kts 68°
2026-04-10 11:16 52.38978 19.73539 12014 ft 286 kts 68°
2026-04-10 11:16 52.39619 19.76593 11811 ft 285 kts 68°
2026-04-10 11:17 52.40258 19.79679 11626 ft 284 kts 69°
2026-04-10 11:17 52.40884 19.82726 11425 ft 284 kts 69°
2026-04-10 11:17 52.41513 19.85805 11217 ft 284 kts 69°
2026-04-10 11:17 52.42130 19.88844 11037 ft 283 kts 69°
2026-04-10 11:18 52.42749 19.91905 10833 ft 281 kts 69°
2026-04-10 11:18 52.43353 19.94903 10642 ft 275 kts 69°
2026-04-10 11:18 52.43949 19.97864 10450 ft 269 kts 69°
2026-04-10 11:18 52.44529 20.00753 10267 ft 263 kts 69°
2026-04-10 11:19 52.45090 20.03551 10095 ft 259 kts 69°
2026-04-10 11:19 52.45655 20.06371 9905 ft 257 kts 69°
2026-04-10 11:19 52.46208 20.09134 9730 ft 257 kts 70°
2026-04-10 11:19 52.46768 20.11939 9544 ft 257 kts 70°
2026-04-10 11:20 52.47318 20.14693 9368 ft 256 kts 70°
2026-04-10 11:20 52.47875 20.17484 9193 ft 256 kts 70°
2026-04-10 11:20 52.48403 20.20140 9021 ft 256 kts 70°
2026-04-10 11:20 52.48947 20.22880 8860 ft 257 kts 70°
2026-04-10 11:21 52.49504 20.25689 8678 ft 257 kts 70°
2026-04-10 11:21 52.50047 20.28458 8497 ft 258 kts 72°
2026-04-10 11:21 52.50428 20.31365 8321 ft 258 kts 79°
2026-04-10 11:21 52.50697 20.34292 8138 ft 258 kts 80°
2026-04-10 11:22 52.50947 20.37175 7969 ft 258 kts 80°
2026-04-10 11:22 52.51206 20.40090 7796 ft 257 kts 80°
2026-04-10 11:22 52.51471 20.42999 7623 ft 257 kts 79°
2026-04-10 11:22 52.51737 20.45874 7442 ft 257 kts 79°
2026-04-10 11:23 52.52011 20.48796 7268 ft 256 kts 79°
2026-04-10 11:23 52.52282 20.51667 7092 ft 256 kts 79°
2026-04-10 11:23 52.52558 20.54584 6812 ft 258 kts 79°
2026-04-10 11:23 52.52830 20.57461 6588 ft 255 kts 79°
2026-04-10 11:24 52.53099 20.60322 6376 ft 250 kts 79°
2026-04-10 11:24 52.53359 20.63100 6194 ft 246 kts 79°
2026-04-10 11:24 52.53531 20.64939 6074 ft 243 kts 79°
2026-04-10 11:24 52.53868 20.68551 5842 ft 237 kts 79°
2026-04-10 11:25 52.54025 20.70243 5724 ft 234 kts 79°
2026-04-10 11:25 52.54267 20.72857 5583 ft 229 kts 79°
2026-04-10 11:25 52.54504 20.75422 5425 ft 224 kts 79°
2026-04-10 11:25 52.54735 20.77917 5308 ft 216 kts 79°
2026-04-10 11:26 52.54948 20.80224 5156 ft 207 kts 79°
2026-04-10 11:26 52.55163 20.82554 5025 ft 204 kts 79°
2026-04-10 11:26 52.55373 20.84847 4884 ft 205 kts 79°
2026-04-10 11:26 52.55582 20.87138 4732 ft 200 kts 79°
2026-04-10 11:27 52.55788 20.89386 4609 ft 195 kts 79°
2026-04-10 11:27 52.55982 20.91557 4476 ft 193 kts 82°
2026-04-10 11:27 52.55694 20.93695 4330 ft 197 kts 126°
2026-04-10 11:27 52.54538 20.94858 4219 ft 201 kts 169°
2026-04-10 11:28 52.53151 20.95128 4112 ft 204 kts 172°
2026-04-10 11:28 52.51759 20.95362 3947 ft 200 kts 179°
2026-04-10 11:28 52.50409 20.94915 3781 ft 195 kts 205°
2026-04-10 11:28 52.49327 20.93683 3722 ft 190 kts 226°
2026-04-10 11:29 52.48503 20.91936 3434 ft 194 kts 242°
2026-04-10 11:29 52.47863 20.90040 3283 ft 190 kts 244°
2026-04-10 11:29 52.47405 20.88026 3127 ft 188 kts 258°
2026-04-10 11:29 52.47123 20.85937 2998 ft 190 kts 261°
2026-04-10 11:30 52.46894 20.83797 2722 ft 189 kts 263°
2026-04-10 11:30 52.46687 20.81698 2425 ft 183 kts 263°
2026-04-10 11:30 52.46493 20.79671 2150 ft 176 kts 263°
2026-04-10 11:30 52.46310 20.77754 1895 ft 169 kts 263°
2026-04-10 11:31 52.46134 20.75897 1642 ft 159 kts 264°
2026-04-10 11:31 52.45969 20.74163 1386 ft 151 kts 264°
2026-04-10 11:31 52.45810 20.72470 1161 ft 149 kts 264°
2026-04-10 11:31 52.45652 20.70795 934 ft 150 kts 264°
2026-04-10 11:32 52.45501 20.69186 730 ft 149 kts 264°
2026-04-10 11:32 52.45336 20.67494 489 ft 149 kts 263°
2026-04-10 11:32 52.45184 20.65854 339 ft 139 kts 263°
2026-04-10 11:32 52.45065 20.64575 333 ft 82 kts 261°
2026-04-10 11:33 52.45008 20.63956 334 ft 42 kts 262°
2026-04-10 11:33 52.44968 20.63546 337 ft 19 kts 260°
2026-04-10 11:33 52.44918 20.63411 337 ft 14 kts 208°
2026-04-10 11:33 52.44826 20.63409 335 ft 13 kts 168°
2026-04-10 11:34 52.44737 20.63433 334 ft 13 kts 171°
2026-04-10 11:34 52.44652 20.63460 334 ft 12 kts 155°
2026-04-10 11:34 52.44633 20.63584 337 ft 12 kts 83°
2026-04-10 11:34 52.44645 20.63720 337 ft 12 kts 81°
2026-04-10 11:35 52.44658 20.63853 336 ft 12 kts 81°
2026-04-10 11:35 52.44670 20.63983 335 ft 11 kts 81°
2026-04-10 11:35 52.44681 20.64106 335 ft 11 kts 81°
2026-04-10 11:35 52.44693 20.64230 333 ft 11 kts 79°
2026-04-10 11:36 52.44708 20.64373 336 ft 15 kts 82°
2026-04-10 11:36 52.44722 20.64539 335 ft 14 kts 82°
2026-04-10 11:36 52.44737 20.64695 333 ft 14 kts 80°
2026-04-10 11:36 52.44752 20.64846 333 ft 13 kts 81°
2026-04-10 11:37 52.44766 20.64990 336 ft 13 kts 81°
2026-04-10 11:37 52.44780 20.65130 335 ft 11 kts 81°
2026-04-10 11:37 52.44760 20.65200 335 ft 7 kts 196°
2026-04-10 11:37 52.44736 20.65178 334 ft 0 kts 207°